Location: Albany
(35.0000°S, 118.0000°E)
Time: 22:29:32
(UTC-04:00)

ADEOS Rocket - Visible Passes

Search period start: 02 September 2015 00:00
Search period end: 12 September 2015 00:00
Orbit: 859 x 1307 km, 98.7° (Epoch: 02 September)

Date Brightness Start Highest point End Pass type
(mag) Time Alt. Az. Time Alt. Az. Time Alt. Az.
02 Sep 3.7 06:33:33 10° SSE 06:41:03 54° E 06:48:39 10° N visible
02 Sep 5.3 08:19:41 10° S 08:26:10 30° WSW 08:32:34 10° WNW visible
02 Sep 5.8 16:48:10 10° E 16:51:16 15° ESE 16:54:50 10° SSE visible
03 Sep 4.0 07:30:05 10° S 07:37:41 64° WSW 07:45:21 10° NNW visible
03 Sep 6.3 09:19:43 10° SW 09:22:02 11° WSW 09:23:44 10° WSW visible
03 Sep 4.4 17:41:44 10° NE 17:47:13 44° ESE 17:53:21 10° S visible
04 Sep 3.6 06:41:14 10° SSE 06:48:54 62° E 06:56:36 10° N visible
04 Sep 5.5 08:27:42 10° SSW 08:33:54 26° WSW 08:39:55 10° WNW visible
04 Sep 5.8 16:55:03 10° ENE 16:58:51 18° ESE 17:03:10 10° SSE visible
05 Sep 4.3 07:37:56 10° S 07:45:29 56° WSW 07:52:59 10° NNW visible
05 Sep 4.1 17:49:11 10° NE 17:54:52 52° ESE 18:01:17 10° S visible
06 Sep 3.6 06:48:59 10° SSE 06:56:46 71° E 07:04:30 10° N visible
06 Sep 5.7 08:35:47 10° SSW 08:41:37 23° WSW 08:47:10 10° WNW visible
06 Sep 5.6 17:02:04 10° ENE 17:06:27 22° ESE 17:11:23 10° SSE visible
07 Sep 4.5 07:45:50 10° S 07:53:16 49° WSW 08:00:34 10° NW visible
08 Sep 3.6 06:56:44 10° SSE 07:04:36 81° ENE 07:12:20 10° N visible
08 Sep 5.8 08:43:55 10° SSW 08:49:19 20° WSW 08:54:21 10° WNW visible
08 Sep 5.4 17:09:13 10° ENE 17:14:04 26° ESE 17:19:31 10° S visible
09 Sep 4.1 06:08:28 10° SSE 06:15:33 37° E 06:22:36 10° NNE visible
09 Sep 4.7 07:53:45 10° S 08:01:01 43° WSW 08:08:06 10° NW visible
09 Sep 6.3 16:25:15 10° ESE 16:25:58 10° ESE 16:27:09 10° SE visible
10 Sep 3.6 07:04:32 10° SSE 07:12:26 88° WSW 07:20:07 10° NNW visible
10 Sep 6.0 08:52:09 10° SSW 08:57:00 17° WSW 09:01:23 10° W visible
10 Sep 5.2 17:16:27 10° NE 17:21:42 31° ESE 17:27:36 10° S visible
11 Sep 3.9 06:16:07 10° SSE 06:23:28 43° E 06:30:40 10° NNE visible
11 Sep 5.0 08:01:43 10° S 08:08:46 37° WSW 08:15:34 10° NW visible
11 Sep 6.1 16:31:04 10° E 16:33:32 13° ESE 16:36:32 10° SSE visible
